Location: Pedholt
(56.0260°N, 10.2097°E)
Time: 05:47:33
(UTC+00:00)

Cosmos 405 Rocket - Pass Details

Date: 14 July 2020
Orbit: 489 x 554 km, 81.3° (Epoch: 14 August)

Event Time Altitude Azimuth Distance (km) Brightness Sun altitude
Exits shadow 00:52:19 14° 185° (S) 1,510 4.4 -10.2°
Maximum altitude 00:55:33 73° 102° (ESE) 537 2.8 -10.0°
Drops below altitude 10° 00:59:19 10° 18° (NNE) 1,719 7.0 -9.8°
Sets 01:01:26 0° 16° (NNE) 2,600 8.5 -9.7°
